Location: Betra
(48.4113°N, 8.6634°E)
Time: 15:58:35
(UTC+00:00)

Cosmos 1833 Rocket - Pass Details

Date: 23 May 2024
Orbit: 831 x 839 km, 71.0° (Epoch: 16 June)

Event Time Altitude Azimuth Distance (km) Brightness Sun altitude
Exits shadow 00:08:18 21° 245° (WSW) 1,774 4.0 -20.2°
Maximum altitude 00:11:38 44° 306° (NW) 1,150 3.5 -20.1°
Drops below altitude 10° 00:17:00 10° 18° (NNE) 2,454 6.3 -19.9°
Sets 00:19:34 0° 25° (NNE) 3,393 7.4 -19.8°
